Weather History for Hereford, TX

Change the Weather History Date:

Monday, August 26, 2013

  Actual Average (KAMA) Record (KAMA)
Temperature  
Mean Temperature 78 °F 76 °F  
Max Temperature 91 °F 88 °F 100 °F (1952)
Min Temperature 64 °F 63 °F 48 °F (2010)
Degree Days  
Heating Degree Days 0 0  
Month to date heating degree days 0  
Since 1 June heating degree days 7  
Since 1 July heating degree days 0  
Cooling Degree Days 12 11  
Month to date cooling degree days 316  
Year to date cooling degree days 1141  
Since 1 June cooling degree days 1016  
Growing Degree Days 28 (Base 50)    
Moisture  
Dew Point 56 °F    
Average Humidity 50    
Maximum Humidity 79    
Minimum Humidity 26    
Precipitation  
Precipitation 0.00 in 0.08 in 3.58 in (1979)
Month to date precipitation 2.53  
Year to date precipitation 14.89  
Snow  
Snow 0.00 in 0.00 in T in (2005)
Month to date snowfall 0.0  
Since 1 June snowfall 0.0  
Since 1 July snowfall 0.0  
Snow Depth -    
Sea Level Pressure  
Sea Level Pressure 30.25 in    
Wind  
Wind Speed 9 mph (South)    
Max Wind Speed 17 mph    
Max Gust Speed 23 mph    
Visibility 10 miles    
Events      
T = Trace of Precipitation, MM = Missing Value Source: NWS Daily Summary

Daily Weather History Graph

Daily Weather History Graph

Search for Another Location

Airport:

Trip Planner

Search our weather history database for the weather conditions in past years. The results will help you decide how hot, cold, wet, or windy it might be!

Date:

Astronomy

Aug. 26, 2013 Rise Set
Actual Time 7:17 AM CDT 8:23 PM CDT
Civil Twilight 6:51 AM CDT 8:49 PM CDT
Nautical Twilight 6:20 AM CDT 9:20 PM CDT
Astronomical Twilight 5:48 AM CDT 9:52 PM CDT
Moon 11:52 PM CDT (8/26) 1:05 PM CDT (8/26)
Length of Visible Light 13h 57m
Length of Day
13h 05m
Waning Gibbous, 66% of the Moon is Illuminated
Aug 26
Waning Gibbous
Aug 28
Last Quarter
Sep 5
New
Sep 12
First Quarter
Sep 19
Full

Hourly Weather History & Observations

Time (CDT) Temp. Heat Index Dew Point Humidity Pressure Visibility Wind Dir Wind Speed Gust Speed Precip Events Conditions
12:15 AM 72.7 °F - 57.0 °F 58% 30.27 in 10.0 mi SE 5.8 mph - N/A   Clear
12:35 AM 73.9 °F - 57.7 °F 57% 30.27 in 10.0 mi SSE 12.7 mph 16.1 mph N/A   Clear
12:55 AM 75.2 °F - 58.5 °F 56% 30.27 in 10.0 mi SSE 12.7 mph 18.4 mph N/A   Clear
1:15 AM 74.3 °F - 58.5 °F 58% 30.27 in 10.0 mi SSE 11.5 mph - N/A   Clear
1:35 AM 73.8 °F - 58.8 °F 59% 30.27 in 10.0 mi SSE 9.2 mph - N/A   Clear
1:55 AM 73.4 °F - 59.0 °F 61% 30.27 in 10.0 mi SSE 9.2 mph - N/A   Clear
2:15 AM 72.9 °F - 59.0 °F 62% 30.27 in 10.0 mi South 9.2 mph - N/A   Clear
2:35 AM 71.6 °F - 59.2 °F 65% 30.27 in 10.0 mi South 6.9 mph - N/A   Clear
2:55 AM 70.5 °F - 59.2 °F 67% 30.27 in 10.0 mi South 5.8 mph - N/A   Clear
3:15 AM 69.8 °F - 59.0 °F 68% 30.27 in 10.0 mi South 5.8 mph - N/A   Clear
3:35 AM 68.9 °F - 59.0 °F 71% 30.27 in 10.0 mi South 4.6 mph - N/A   Clear
3:55 AM 68.0 °F - 59.0 °F 73% 30.27 in 10.0 mi SSE 6.9 mph - N/A   Clear
4:15 AM 67.8 °F - 59.0 °F 73% 30.26 in 10.0 mi South 5.8 mph - N/A   Clear
4:35 AM 67.1 °F - 58.6 °F 74% 30.27 in 10.0 mi South 5.8 mph - N/A   Clear
4:55 AM 66.7 °F - 58.5 °F 75% 30.26 in 10.0 mi SSE 5.8 mph - N/A   Clear
5:15 AM 66.4 °F - 58.5 °F 76% 30.26 in 10.0 mi South 6.9 mph - N/A   Clear
5:35 AM 66.7 °F - 58.6 °F 75% 30.26 in 10.0 mi South 5.8 mph - N/A   Clear
5:55 AM 66.7 °F - 58.6 °F 75% 30.27 in 10.0 mi South 6.9 mph - N/A   Clear
6:15 AM 66.4 °F - 58.5 °F 76% 30.27 in 10.0 mi South 5.8 mph - N/A   Clear
6:35 AM 65.7 °F - 58.3 °F 77% 30.27 in 10.0 mi South 5.8 mph - N/A   Clear
6:55 AM 65.5 °F - 58.1 °F 77% 30.27 in 10.0 mi South 5.8 mph - N/A   Clear
7:15 AM 64.9 °F - 58.1 °F 78% 30.28 in 10.0 mi South 5.8 mph - N/A   Clear
7:35 AM 64.4 °F - 57.9 °F 79% 30.28 in 10.0 mi South 6.9 mph - N/A   Clear
7:55 AM 65.5 °F - 58.1 °F 77% 30.28 in 10.0 mi South 6.9 mph - N/A   Clear
8:15 AM 67.8 °F - 58.3 °F 71% 30.29 in 10.0 mi South 6.9 mph - N/A   Clear
8:35 AM 70.3 °F - 58.5 °F 66% 30.29 in 10.0 mi South 6.9 mph - N/A   Clear
8:55 AM 73.2 °F - 59.0 °F 61% 30.29 in 10.0 mi SSW 10.4 mph - N/A   Clear
9:15 AM 75.2 °F - 59.4 °F 58% 30.29 in 10.0 mi South 13.8 mph - N/A   Clear
9:35 AM 77.4 °F - 59.7 °F 54% 30.29 in 10.0 mi SSW 12.7 mph - N/A   Clear
9:55 AM 78.3 °F - 59.5 °F 52% 30.30 in 10.0 mi SSW 13.8 mph - N/A   Clear
10:15 AM 80.2 °F 80.9 °F 59.7 °F 49% 30.29 in 10.0 mi SW 13.8 mph - N/A   Clear
10:35 AM 80.8 °F 81.3 °F 59.2 °F 48% 30.30 in 10.0 mi South 11.5 mph - N/A   Clear
10:55 AM 82.4 °F 82.5 °F 59.0 °F 45% 30.29 in 10.0 mi SW 10.4 mph - N/A   Clear
11:15 AM 83.3 °F 82.9 °F 58.3 °F 42% 30.29 in 10.0 mi South 10.4 mph - N/A   Clear
11:35 AM 84.0 °F 83.5 °F 58.1 °F 41% 30.30 in 10.0 mi South 10.4 mph - N/A   Clear
11:55 AM 84.9 °F 84.2 °F 57.9 °F 40% 30.29 in 10.0 mi South 12.7 mph - N/A   Clear
12:15 PM 85.8 °F 85.0 °F 58.3 °F 39% 30.29 in 10.0 mi South 11.5 mph 20.7 mph N/A   Scattered Clouds
12:35 PM 86.4 °F 85.4 °F 57.7 °F 38% 30.28 in 10.0 mi SSE 13.8 mph 18.4 mph N/A   Clear
12:55 PM 87.1 °F 85.9 °F 57.2 °F 36% 30.28 in 10.0 mi SSE 6.9 mph 16.1 mph N/A   Scattered Clouds
1:15 PM 86.4 °F 85.2 °F 57.0 °F 37% 30.27 in 10.0 mi South 12.7 mph 21.9 mph N/A   Scattered Clouds
1:35 PM 88.3 °F 86.9 °F 56.3 °F 34% 30.26 in 10.0 mi SSE 9.2 mph 19.6 mph N/A   Scattered Clouds
1:55 PM 89.2 °F 87.5 °F 55.9 °F 32% 30.25 in 10.0 mi South 11.5 mph - N/A   Scattered Clouds
2:15 PM 86.2 °F 84.9 °F 56.1 °F 36% 30.25 in 10.0 mi South 10.4 mph 18.4 mph N/A   Mostly Cloudy
2:35 PM 87.3 °F 85.3 °F 54.3 °F 32% 30.24 in 10.0 mi SE 15.0 mph 19.6 mph N/A   Scattered Clouds
2:55 PM 90.1 °F 87.9 °F 53.4 °F 29% 30.24 in 10.0 mi SE 9.2 mph 20.7 mph N/A   Scattered Clouds
3:15 PM 87.4 °F 85.3 °F 53.1 °F 31% 30.23 in 10.0 mi SE 16.1 mph - N/A   Scattered Clouds
3:35 PM 91.0 °F - 52.5 °F 27% 30.22 in 10.0 mi SSE 11.5 mph 21.9 mph N/A   Mostly Cloudy
3:55 PM 90.5 °F 88.1 °F 53.2 °F 28% 30.22 in 10.0 mi SSE 12.7 mph 19.6 mph N/A   Mostly Cloudy
4:15 PM 87.4 °F - 52.7 °F 30% 30.21 in 10.0 mi SSE 13.8 mph 19.6 mph N/A   Scattered Clouds
4:35 PM 90.0 °F - 50.9 °F 26% 30.20 in 10.0 mi South 10.4 mph 21.9 mph N/A   Scattered Clouds
4:55 PM 91.2 °F - 52.0 °F 26% 30.20 in 10.0 mi SSW 15.0 mph 21.9 mph N/A   Mostly Cloudy
5:15 PM 90.0 °F - 51.4 °F 27% 30.20 in 10.0 mi SSE 17.3 mph - N/A   Scattered Clouds
5:35 PM 88.3 °F - 51.1 °F 28% 30.20 in 10.0 mi South 13.8 mph 23.0 mph N/A   Clear
5:55 PM 88.9 °F - 50.7 °F 27% 30.20 in 10.0 mi SSE 16.1 mph 19.6 mph N/A   Scattered Clouds
6:15 PM 89.1 °F - 50.5 °F 27% 30.20 in 10.0 mi SSE 11.5 mph 17.3 mph N/A   Scattered Clouds
6:35 PM 87.8 °F - 49.8 °F 27% 30.19 in 10.0 mi SSE 13.8 mph 19.6 mph N/A   Scattered Clouds
6:55 PM 87.4 °F - 50.0 °F 27% 30.19 in 10.0 mi SSE 11.5 mph - N/A   Clear
7:15 PM 86.7 °F - 49.5 °F 28% 30.19 in 10.0 mi South 13.8 mph 18.4 mph N/A   Clear
7:35 PM 85.5 °F - 49.8 °F 29% 30.18 in 10.0 mi SSE 11.5 mph - N/A   Clear
7:55 PM 84.2 °F - 50.4 °F 31% 30.18 in 10.0 mi South 11.5 mph - N/A   Clear
8:15 PM 82.4 °F - 52.5 °F 35% 30.18 in 10.0 mi SSE 11.5 mph - N/A   Clear
8:35 PM 80.8 °F - 52.9 °F 38% 30.18 in 10.0 mi SSE 11.5 mph - N/A   Clear
8:55 PM 79.9 °F - 54.3 °F 41% 30.19 in 10.0 mi SSE 9.2 mph - N/A   Clear
9:15 PM 77.0 °F - 54.7 °F 46% 30.19 in 10.0 mi South 5.8 mph - N/A   Clear
9:35 PM 76.3 °F - 55.4 °F 48% 30.19 in 10.0 mi South 6.9 mph - N/A   Clear
9:55 PM 75.2 °F - 55.8 °F 51% 30.19 in 10.0 mi South 4.6 mph - N/A   Clear
10:15 PM 73.4 °F - 56.3 °F 55% 30.20 in 10.0 mi SSE 5.8 mph - N/A   Clear
10:35 PM 72.5 °F - 56.3 °F 57% 30.20 in 10.0 mi South 3.5 mph - N/A   Clear
10:55 PM 72.0 °F - 56.3 °F 58% 30.21 in 10.0 mi South 4.6 mph - N/A   Clear
11:15 PM 72.0 °F - 56.1 °F 57% 30.21 in 10.0 mi SSE 8.1 mph - N/A   Clear
11:35 PM 73.4 °F - 55.9 °F 54% 30.21 in 10.0 mi SSE 8.1 mph - N/A   Clear
11:55 PM 72.9 °F - 56.1 °F 56% 30.21 in 10.0 mi SSE 9.2 mph - N/A   Clear